Northbrook, IL

3:52 AM CST on December 03, 2016 (GMT -0600)
Chicago Executive

Weather History for KPWK - November, 2012

Change the Weather History Date:

Tuesday, November 13, 2012

  Actual Average Record
Temperature  
Mean Temperature 32 °F 41 °F  
Max Temperature 40 °F 50 °F 70 °F (2011)
Min Temperature 23 °F 33 °F 17 °F (1996)
Degree Days  
Heating Degree Days 33 24  
Month to date heating degree days 302 274  
Since 1 July heating degree days 871 795  
Cooling Degree Days 0 0  
Month to date cooling degree days 0 0  
Year to date cooling degree days 1228 789  
Moisture  
Dew Point 19 °F    
Average Humidity 63    
Maximum Humidity 81    
Minimum Humidity 43    
Precipitation  
Precipitation 0.00 in 0.10 in 0.21 in (2000)
Month to date precipitation 0.48 1.32  
Year to date precipitation 19.63 29.95  
Sea Level Pressure  
Sea Level Pressure 30.49 in    
Wind  
Wind Speed 3 mph (West)    
Max Wind Speed 14 mph    
Max Gust Speed 18 mph    
Visibility 10 miles    
Events      
T = Trace of Precipitation, MM = Missing Value Source: NWS Daily Summary

Daily Weather History Graph

Daily Weather History Graph

Search for Another Location

Airport or City:

Trip Planner

Search our weather history database for the weather conditions in past years. The results will help you decide how hot, cold, wet, or windy it might be!

Date:

Astronomy

Nov. 13, 2012 Rise Set
Actual Time 6:39 AM CST 4:31 PM CST
Civil Twilight 6:09 AM CST 5:01 PM CST
Nautical Twilight 5:36 AM CST 5:35 PM CST
Astronomical Twilight 5:03 AM CST 6:08 PM CST
Moon 6:17 AM CST (11/13) 4:23 PM CST (11/13)
Length of Visible Light 10h 51m
Length of Day
9h 51m
Waning Crescent, 0% of the Moon is Illuminated
Nov 13
Waning Crescent
Nov 13
New
Nov 20
First Quarter
Nov 28
Full
Dec 6
Last Quarter

Hourly Weather History & Observations

Time (CST) Temp. Windchill Dew Point Humidity Pressure Visibility Wind Dir Wind Speed Gust Speed Precip Events Conditions
12:52 AM 27.0 °F 19.5 °F 15.1 °F 61% 30.39 in 10.0 mi WNW 6.9 mph - N/A   Clear
1:52 AM 26.1 °F 19.4 °F 16.0 °F 66% 30.40 in 10.0 mi West 5.8 mph - N/A   Clear
2:52 AM 25.0 °F 19.3 °F 17.1 °F 72% 30.41 in 10.0 mi West 4.6 mph - N/A   Clear
3:52 AM 25.0 °F 20.7 °F 17.1 °F 72% 30.43 in 10.0 mi WSW 3.5 mph - N/A   Clear
4:52 AM 24.1 °F 17.0 °F 16.0 °F 71% 30.45 in 10.0 mi West 5.8 mph - N/A   Clear
5:52 AM 24.1 °F - 17.1 °F 75% 30.47 in 10.0 mi Calm Calm - N/A   Clear
6:52 AM 23.0 °F 15.8 °F 17.1 °F 78% 30.49 in 10.0 mi West 5.8 mph - N/A   Clear
7:52 AM 26.1 °F 21.9 °F 17.1 °F 69% 30.51 in 10.0 mi West 3.5 mph - N/A   Clear
8:52 AM 28.9 °F 21.1 °F 18.0 °F 64% 30.52 in 10.0 mi WNW 8.1 mph - N/A   Clear
9:52 AM 30.9 °F 26.2 °F 19.0 °F 61% 30.53 in 10.0 mi WNW 4.6 mph - N/A   Clear
10:52 AM 34.0 °F 28.8 °F 19.0 °F 54% 30.53 in 10.0 mi WNW 5.8 mph - N/A   Clear
11:52 AM 36.0 °F 32.1 °F 19.0 °F 50% 30.50 in 10.0 mi West 4.6 mph - N/A   Clear
12:52 PM 37.9 °F - 19.0 °F 47% 30.49 in 10.0 mi Calm Calm - N/A   Clear
1:52 PM 39.0 °F 36.8 °F 18.0 °F 43% 30.48 in 10.0 mi WSW 3.5 mph - N/A   Clear
2:52 PM 39.9 °F 36.7 °F 19.0 °F 43% 30.48 in 10.0 mi Variable 4.6 mph - N/A   Clear
3:52 PM 39.0 °F 36.8 °F 19.0 °F 45% 30.49 in 10.0 mi SSW 3.5 mph - N/A   Clear
4:52 PM 37.0 °F 33.3 °F 19.9 °F 50% 30.50 in 10.0 mi SW 4.6 mph - N/A   Clear
5:52 PM 36.0 °F - 21.0 °F 55% 30.51 in 10.0 mi Calm Calm - N/A   Clear
6:52 PM 30.9 °F - 21.9 °F 69% 30.51 in 10.0 mi Calm Calm - N/A   Clear
7:52 PM 30.0 °F - 21.9 °F 72% 30.52 in 10.0 mi Calm Calm - N/A   Clear
8:52 PM 30.0 °F - 21.9 °F 72% 30.53 in 10.0 mi Calm Calm - N/A   Clear
9:52 PM 30.0 °F - 23.0 °F 75% 30.52 in 10.0 mi Calm Calm - N/A   Clear
10:52 PM 28.9 °F - 21.9 °F 75% 30.53 in 10.0 mi Calm Calm - N/A   Clear
11:52 PM 27.0 °F - 21.9 °F 81% 30.53 in 10.0 mi Calm Calm - N/A   Clear